Home > Weather > Mistelbach > Past weeks

Flag for Austria Past Weather in Mistelbach, Lower Austria, Austria — Yesterday and Last 2 Weeks

Now
62 °F

Cool.


Feels Like: 62 °F
Forecast: 61 / 86 °F
Wind: 1 mph from Southeast

Location: Wien / Hohe Warte

Current Time: Aug 26, 2016 at 3:42:13 AM

Latest Report: Aug 26, 2016 at 3:00 AM


Visibility: N/A

Pressure: 30.17 "Hg

Humidity: 82%

Dew Point: 56 °F

Location of MistelbachLocation

Past Weather in Mistelbach — Graph

°F

Mistelbach Temperature Yesterday

Maximum temperature yesterday: 80 °F (at 4:00 PM)
Minimum temperature yesterday: 57 °F (at 6:00 AM)
Average temperature yesterday: 70 °F

High & Low Weather Summary for the Past Weeks

 TemperatureHumidityPressure
High85 °F (Aug 14, 4:00 PM)96% (Aug 14, 6:00 AM)30.35 "Hg (Aug 14, 6:00 AM)
Low51 °F (Aug 12, 6:00 AM)40% (Aug 11, 4:00 PM)29.78 "Hg (Aug 18, 5:00 PM)
Average67 °F69%30.11 "Hg
* Reported Aug 11 2:00 AM — Aug 26 2:00 AM, Mistelbach, Weather by CustomWeather, © 2016

Note: Actual official high and low records may vary slightly from our data, if they occured in-between our weather recording intervals... More about our weather records

Advertising

Mistelbach Weather History for the Previous 24 Hours

Scroll right to see more
 ConditionsComfort  
Time TempWeatherWind HumidityBarometerVisibility
2:00 AM
Fri, Aug 26
62 °FClear.2 mph82%30.17 "Hg16 mi
1:00 AM63 °FMild.1 mph82%30.18 "HgN/A
12:00 AM65 °FMild.2 mph76%30.18 "HgN/A
11:00 PM
Thu, Aug 25
68 °FClear.2 mph68%30.17 "Hg25 mi
10:00 PM70 °FClear.2 mph64%30.17 "Hg25 mi
9:00 PM72 °FClear.3 mph59%30.16 "Hg25 mi
8:00 PM74 °FClear.3 mph54%30.15 "Hg28 mi
7:00 PM76 °FSunny.3 mph48%30.13 "Hg34 mi
6:00 PM78 °FSunny.3 mph44%30.14 "Hg34 mi
5:00 PM80 °FSunny.2 mph45%30.14 "Hg34 mi
4:00 PM80 °FSunny.3 mph43%30.15 "Hg34 mi
3:00 PM79 °FPassing clouds.3 mph47%30.17 "Hg34 mi
2:00 PM78 °FPassing clouds.2 mph50%30.18 "Hg31 mi
1:00 PM76 °FPassing clouds.3 mph55%30.19 "Hg25 mi
12:00 PM74 °FPassing clouds.2 mph59%30.21 "Hg19 mi
11:00 AM71 °FSunny.2 mph63%30.22 "Hg19 mi
10:00 AM68 °FSunny.2 mph68%30.23 "Hg19 mi
9:00 AM65 °FSunny.2 mph73%30.23 "Hg17 mi
8:00 AM63 °FSunny.1 mph79%30.22 "Hg16 mi
7:00 AM59 °FSunny.1 mph89%30.23 "Hg9 mi
6:00 AM57 °FClear.No wind90%30.23 "Hg6 mi
5:00 AM59 °FCool.No wind86%30.22 "HgN/A
4:00 AM61 °FCool.1 mph81%30.23 "HgN/A
3:00 AM64 °FMild.2 mph73%30.23 "HgN/A
Weather by CustomWeather, © 2016

See weather overviewHow to use our weather pages